Weather History for Renton, WA

Change the Weather History Date:

Friday, December 7, 2012

  Actual Average Record
Temperature  
Mean Temperature 44 °F -  
Max Temperature 48 °F 46 °F 55 °F (2010)
Min Temperature 41 °F 37 °F 16 °F (2013)
Degree Days  
Heating Degree Days 20    
Moisture  
Dew Point 39 °F    
Average Humidity 79    
Maximum Humidity 86    
Minimum Humidity 69    
Precipitation  
Precipitation 0.12 in - - ()
Sea Level Pressure  
Sea Level Pressure 30.05 in    
Wind  
Wind Speed 7 mph (SSE)    
Max Wind Speed 14 mph    
Max Gust Speed 24 mph    
Visibility 9 miles    
Events Rain    
Averages and records for this station are not official NWS values.
T = Trace of Precipitation, MM = Missing Value Source: NWS Daily Summary

Daily Weather History Graph

Daily Weather History Graph

Search for Another Location

Airport:

Trip Planner

Search our weather history database for the weather conditions in past years. The results will help you decide how hot, cold, wet, or windy it might be!

Date:

Astronomy

Dec. 07, 2012 Rise Set
Actual Time 7:43 AM PST 4:17 PM PST
Civil Twilight 7:07 AM PST 4:53 PM PST
Nautical Twilight 6:28 AM PST 5:32 PM PST
Astronomical Twilight 5:51 AM PST 6:09 PM PST
Moon 12:45 AM PST (12/7) 12:38 PM PST (12/7)
Length of Visible Light 9h 45m
Length of Day
8h 34m
Last Quarter, 37% of the Moon is Illuminated
Dec 7
Last Quarter
Dec 13
New
Dec 19
First Quarter
Dec 28
Full
Jan 4
Last Quarter

Hourly Weather History & Observations

Time (PST) Temp. Windchill Dew Point Humidity Pressure Visibility Wind Dir Wind Speed Gust Speed Precip Events Conditions
12:18 AM 46.4 °F 41.9 °F 39.2 °F 76% 30.10 in 10.0 mi SSE 9.2 mph - N/A   Mostly Cloudy
12:50 AM 46.4 °F 42.9 °F 39.2 °F 76% 30.09 in 10.0 mi SE 6.9 mph - N/A   Overcast
12:53 AM 46.9 °F - 39.9 °F 77% 30.11 in 10.0 mi SE 5.8 mph - N/A   Overcast
1:53 AM 46.9 °F - 39.0 °F 74% 30.10 in 10.0 mi SSE 9.2 mph - 0.00 in Rain Light Rain
2:53 AM 46.0 °F 42.5 °F 41.0 °F 83% 30.09 in 7.0 mi SSE 6.9 mph - 0.02 in Rain Light Rain
3:53 AM 46.0 °F 43.1 °F 41.0 °F 83% 30.07 in 10.0 mi SSE 5.8 mph - 0.00 in   Overcast
4:15 AM 46.4 °F 43.5 °F 41.0 °F 81% 30.04 in 10.0 mi SE 5.8 mph - N/A   Overcast
4:48 AM 46.4 °F 43.5 °F 41.0 °F 81% 30.03 in 10.0 mi Variable 5.8 mph - 0.00 in   Overcast
4:53 AM 46.9 °F - 41.0 °F 80% 30.05 in 10.0 mi SSE 8.1 mph - 0.00 in   Overcast
5:53 AM 46.9 °F - 41.0 °F 80% 30.04 in 10.0 mi SSE 10.4 mph - 0.00 in   Mostly Cloudy
6:13 AM 46.4 °F 41.5 °F 41.0 °F 81% 30.01 in 10.0 mi South 10.4 mph - 0.00 in Rain Light Rain
6:22 AM 46.4 °F 41.1 °F 41.0 °F 81% 30.01 in 10.0 mi SSE 11.5 mph - 0.00 in Rain Light Rain
6:53 AM 46.9 °F - 41.0 °F 80% 30.01 in 10.0 mi SSE 8.1 mph - 0.00 in Rain Light Rain
7:53 AM 48.0 °F - 41.0 °F 77% 29.99 in 10.0 mi SSE 10.4 mph - 0.01 in   Overcast
8:44 AM 48.2 °F - 39.2 °F 71% 29.96 in 10.0 mi South 13.8 mph 24.2 mph N/A   Scattered Clouds
8:53 AM 48.0 °F - 39.9 °F 74% 29.98 in 10.0 mi South 10.4 mph 19.6 mph N/A   Clear
9:37 AM 48.2 °F - 41.0 °F 76% 29.96 in 10.0 mi South 10.4 mph - N/A   Overcast
9:53 AM 48.9 °F - 41.0 °F 74% 29.99 in 10.0 mi South 8.1 mph 19.6 mph N/A   Overcast
10:53 AM 48.9 °F - 39.9 °F 71% 30.00 in 10.0 mi SSW 8.1 mph 18.4 mph N/A   Mostly Cloudy
11:53 AM 48.9 °F - 39.0 °F 69% 29.99 in 10.0 mi Variable 4.6 mph - N/A   Overcast
12:53 PM 48.9 °F - 39.0 °F 69% 30.00 in 10.0 mi WSW 5.8 mph - N/A   Overcast
1:53 PM 45.0 °F 40.6 °F 39.0 °F 80% 30.02 in 5.0 mi North 8.1 mph - 0.01 in Rain Light Rain
1:57 PM 44.6 °F 40.7 °F 39.2 °F 81% 30.01 in 2.5 mi North 6.9 mph - 0.03 in Rain Heavy Rain
2:06 PM 44.6 °F 40.2 °F 39.2 °F 81% 30.01 in 1.8 mi NNW 8.1 mph - 0.05 in Rain Rain
2:11 PM 44.6 °F 40.7 °F 39.2 °F 81% 30.01 in 2.5 mi North 6.9 mph - 0.06 in Rain Rain
2:14 PM 44.6 °F 41.4 °F 39.2 °F 81% 30.01 in 4.0 mi North 5.8 mph - 0.06 in Rain Light Rain
2:53 PM 45.0 °F 43.5 °F 39.9 °F 82% 30.04 in 10.0 mi SE 3.5 mph - 0.07 in   Overcast
3:00 PM 44.6 °F - 39.2 °F 81% 30.03 in 10.0 mi Calm Calm - N/A   Overcast
3:53 PM 45.0 °F - 39.9 °F 82% 30.07 in 10.0 mi Calm Calm - 0.01 in   Overcast
4:53 PM 44.1 °F - 39.0 °F 82% 30.09 in 10.0 mi Calm Calm - N/A   Mostly Cloudy
5:53 PM 43.0 °F - 39.0 °F 86% 30.11 in 10.0 mi Calm Calm - N/A   Partly Cloudy
6:53 PM 42.1 °F - 37.9 °F 85% 30.12 in 10.0 mi Calm Calm - N/A   Clear
7:53 PM 42.1 °F 40.2 °F 37.9 °F 85% 30.12 in 10.0 mi ESE 3.5 mph - N/A   Mostly Cloudy
8:53 PM 42.1 °F 40.2 °F 37.0 °F 82% 30.14 in 10.0 mi SE 3.5 mph - N/A   Overcast
9:53 PM 42.1 °F 40.2 °F 37.0 °F 82% 30.16 in 10.0 mi ESE 3.5 mph - N/A   Scattered Clouds
10:53 PM 41.0 °F 38.0 °F 36.0 °F 82% 30.16 in 10.0 mi ESE 4.6 mph - N/A   Mostly Cloudy
11:53 PM 41.0 °F - 36.0 °F 82% 30.18 in 10.0 mi Calm Calm - N/A   Scattered Clouds